Showing default

COSMOS 1999, 19790

Orbit data source: Space-Track

COSMOS 1999, 19790 is a payload satellite owned by UNKS (CIS) in LEO that was launched on Fri, 10 Feb 1989 UTC via a TSIKLON-3 launch vehicle from the Plesetsk Missile And Space Complex (PKMTR). Payload-class satellites include a variety of spacecraft equipped with specific instruments for various scientific and technological missions. These include communications satellites like Starlink; space stations such as the ISS; scientific satellites like the Hubble; Earth observation satellites from companies like Planet Labs, Umbra, and HawkEye 360; GPS; miniature CubeSats for education and research; and military/defense satellites.

Loading next visibility...
Identifier
19790, 1989-009F
Orbit
LEO
Country
Flag of CISCIS
Related business
Manufacturer
NPO PM
Mission
Defense Communications
Bus & Motor
STRELA-3, Unknown motor
Mass
225 kg wet, 225 kg dry
Launch date (UTC)
1989-02-10 (37 years ago)
Launch vehicle
TSIKLON-3
Launch site
Plesetsk Missile And Space Complex (PKMTR)
Object type
Payload
Rocket body
Debris
Shape & HBR
Cyl, 0.8 m
Radar Cross Section
1.257 m², Medium (>0.1 m² and < 1m²)

Expand to show TLE details & history
Last TLE update: 17 hours ago

TLE from 17 hours ago
0 COSMOS 1999
1 19790U 89009F   25260.65085388  .00000021  00000-0  55272-4 0  9998
2 19790  82.6193 140.8254 0020132 122.5434 296.0332 12.65740210690772
Epoch: 2025-09-17T15:37Z
TLE epoch observation values (Epoch: 2025-09-17T15:37:13.775Z)
Latitude
57.69711°
Longitude
-78.54254°
Altitude
1,402.149 km
Speed
7.167 km/s
True Right ascension
10h 10m 21s
True Declination
57° 33' 16"
Sunlit
Object was in daylight at epoch
Visualization orbit readout
Latitude
Unknown
Longitude
Unknown
Altitude
Unknown
Speed
Unknown
Apparent Right ascension
Unknown
Apparent Declination
Unknown
Sunlit
N/A
Visualization observer readout
Local Sidereal Time
01:22:17
Azimuth
Unknown
Elevation
Unknown
Doppler factor
Unknown
Orbital elements
Apogee altitude
1,412.307 km
Perigee altitude
1,381.003 km
Semi-major axis
7,774.792 km
Eccentricity
0.00201
Inclination
82.6193°
RAAN
140.8254°
Arg. of periapsis
122.5434°
True anomaly
295.82568°
Mean anomaly
296.0332°
Eccentric anomaly
295.92946°
Mean motion
3.16599 °/min
Orbital period
113.71 mins
BSTAR
0.000055272
Loading maneuver chart data...
Computing Atmospheric mass density...
Loading historical data...
Loading historical data...
Loading historical data...
Loading historical data...
Loading historical data...
Loading historical data...
Loading historical data...

Documentation

Showing up to 5 results
|